[[{"header":{"parameterUnit":"m.s-1","parameterCategory":2,"la1":30.2991,"la2":30.254,"lo1":-89.0895,"lo2":-89.0444,"dy":0.0017,"dx":0.0017,"nx":28,"ny":28,"refTime":"2024-04-04T03:00:00:Z","depth":"0","parameterNumber":2,"parameterNumberName":"U-component_of_CURRENTS"},"data":[0,0,0,0,0,0,0,0,0,0,0,0,0,0,0,0,0,0,0,0,0,0,0,0,0,0,0,0,0,0,0,0,0,0,0,0,0,0,0,0,0,0,0,0,0,0,0,0,0,0,0,0,0,0,0,0,0,0,0.2791,0.2792,0,0.2876,0.2876,0.2876,0.2959,0.2961,0.2963,0.2964,0.2967,0.2965,0.2964,0,0,0,0,0,0,0,0,0,0,0,0,0,0.2737,0.2736,0.2791,0.2793,0.2794,0.2875,0.2876,0.2876,0.2959,0.2961,0.2963,0.2965,0.2967,0.2966,0.2964,0,0,0,0,0,0,0,0,0,0,0,0,0,0.2778,0.2736,0.2791,0.285,0.2857,0.2875,0.2876,0.2877,0.2959,0.2961,0.2964,0.2966,0.2968,0.2966,0.2964,0.2898,0,0,0.2957,0.2956,0,0,0,0,0,0,0,0,0.2775,0.2779,0.284,0.2846,0.2854,0.2916,0.2859,0.2882,0.2958,0.2913,0.2964,0.2967,0.2945,0.2945,0.2946,0.2898,0.2898,0.2956,0.2955,0.2954,0.2953,0,0,0,0,0,0,0,0.2772,0.2776,0.2817,0.2842,0.285,0.2886,0.2893,0.2863,0.2906,0.2917,0.2925,0.2944,0.2947,0.2948,0.2947,0.2898,0.2956,0.2954,0.2953,0.2952,0.283,0.2828,0,0,0,0,0,0,0.2771,0.2773,0.2815,0.2821,0.2828,0.2885,0.2893,0.2888,0.2909,0.2917,0.2942,0.2948,0.2951,0.2949,0.2947,0.2919,0.2954,0.2952,0.295,0.2832,0.283,0.2828,0,0,0,0,0,0,0.2769,0.2772,0.2812,0.2806,0.2815,0.2884,0.2876,0.2888,0.2902,0.293,0.2936,0.2947,0.2953,0.295,0.2928,0.2918,0.2951,0.2949,0.2834,0.2831,0.2829,0.2832,0,0,0,0,0,0,0.2766,0.277,0.2747,0.2805,0.2815,0.2799,0.2875,0.2888,0.2913,0.2921,0.2935,0.2938,0.2955,0.2931,0.2925,0.2916,0.2947,0.2836,0.2833,0.283,0.2834,0.283,0.2826,0,0,0,0,0,0.2763,0.2714,0.2745,0.275,0.2786,0.2798,0.2803,0.2859,0.291,0.2886,0.2919,0.2938,0.2905,0.2927,0.2921,0.2911,0.2838,0.2834,0.283,0.2836,0.283,0.2826,0,0,0,0,0,0,0.2654,0.2721,0.2755,0.2722,0.2754,0.2814,0.2794,0.2851,0.2859,0.2862,0.2911,0.2913,0.288,0.2884,0.2908,0.2861,0.2874,0.2868,0.2881,0.2875,0.2871,0.2814,0.2945,0,0,0,0,0,0.2625,0.2619,0.2683,0.2652,0.2662,0.273,0.2741,0.2779,0.2809,0.2817,0.2847,0.2858,0.2852,0.2859,0.2831,0.2809,0.28,0.2796,0.2791,0.2788,0.2734,0.2752,0.2746,0.2814,0.2814,0.2814,0,0,0.258,0.2611,0.2609,0.2631,0.2656,0.2661,0.2739,0.2735,0.2748,0.2808,0.2811,0.2823,0.2833,0.2811,0.2799,0.2824,0.2763,0.2783,0.2781,0.2727,0.2748,0.2741,0.2736,0.2811,0.2812,0.2812,0,0,0.2491,0.2503,0.248,0.25,0.2535,0.258,0.2582,0.2638,0.2664,0.2665,0.2719,0.2725,0.2722,0.2744,0.2753,0.2697,0.2722,0.27,0.266,0.2681,0.2676,0.2671,0.2658,0.2653,0.2724,0.2724,0.2724,0,0.2446,0.2422,0.2467,0.2451,0.2474,0.2547,0.2537,0.2557,0.2606,0.2626,0.2649,0.267,0.2683,0.2691,0.2677,0.2688,0.2694,0.2695,0.2679,0.2674,0.2669,0.2657,0.2651,0.2724,0.2724,0.2724,0.2724,0,0.2352,0.234,0.2316,0.2344,0.2359,0.2347,0.241,0.2422,0.2478,0.2523,0.2525,0.2551,0.2578,0.2592,0.2615,0.26,0.2611,0.266,0.2702,0.2663,0.2652,0.2645,0.2723,0.2724,0.2724,0.2724,0,0,0.2265,0.2263,0.226,0.2268,0.231,0.2318,0.2326,0.2369,0.2394,0.2418,0.2449,0.2443,0.248,0.2486,0.2537,0.255,0.2535,0.2587,0.2588,0.2587,0.2558,0.2472,0.2457,0.2607,0.2606,0.2604,0.2567,0,0.2199,0.2152,0.218,0.2162,0.2155,0.2228,0.2243,0.2284,0.2331,0.2365,0.2399,0.2419,0.2441,0.2469,0.2479,0.2523,0.2514,0.2537,0.2578,0.2577,0.2519,0.2445,0.2302,0.2248,0.2561,0.256,0.2559,0,0.2104,0.2106,0.2065,0.2105,0.2111,0.2115,0.2179,0.2198,0.2255,0.2291,0.232,0.236,0.2374,0.2402,0.2424,0.2447,0.2463,0.2489,0.2491,0.2388,0.2476,0.2332,0.2224,0.2183,0.2549,0.255,0.2551,0,0.2024,0.2025,0.2,0.2008,0.2057,0.2068,0.2108,0.2169,0.2198,0.2246,0.2271,0.2303,0.233,0.235,0.2396,0.2418,0.2412,0.2475,0.2395,0.2391,0.2253,0.2238,0.211,0.244,0.244,0.244,0.244,0,0.1935,0.1917,0.1961,0.1947,0.1958,0.2008,0.2026,0.2075,0.2132,0.215,0.2223,0.2239,0.2316,0.2343,0.2371,0.2346,0.2401,0.2324,0.2358,0.2249,0.2234,0.218,0.2176,0.2439,0.2439,0.2439,0.2439,0,0.1822,0.1839,0.1834,0.1891,0.1907,0.1916,0.1988,0.1999,0.2066,0.2091,0.2104,0.219,0.2203,0.2262,0.2304,0.2306,0.2224,0.2288,0.2128,0.214,0.1991,0.1992,0.1793,0.1744,0.216,0.2157,0.2155,0,0.1742,0.1724,0.1788,0.1799,0.182,0.1851,0.1869,0.1952,0.197,0.2052,0.2049,0.2086,0.2079,0.2101,0.2107,0.2098,0.2097,0.1977,0.1963,0.1896,0.1927,0.1902,0.1877,0.1796,0.1791,0.1787,0.1783,0,0.1635,0.1667,0.1679,0.1708,0.1727,0.1753,0.1785,0.1794,0.1876,0.189,0.1896,0.1894,0.1904,0.183,0.1841,0.1836,0.1845,0.1889,0.1872,0.1623,0.1534,0.1535,0.1907,0.1747,0.1751,0.1753,0.1755,0.1757,0.157,0.1567,0.1595,0.1611,0.1632,0.1629,0.1611,0.1639,0.1637,0.163,0.1709,0.1659,0.1634,0.1601,0.159,0.1491,0.1557,0.1447,0.1454,0.1438,0.1354,0.1609,0.1467,0.1469,0.1471,0.1472,0.1473,0,0.1495,0.1488,0.1496,0.1502,0.1476,0.1527,0.1528,0.1488,0.1425,0.145,0.1424,0.135,0.1262,0.1257,0.1167,0.1097,0.1081,0.1072,0.1015,0.1018,0.1277,0.1227,0.0962,0.0962,0.0962,0.0963,0.0963,0.0963,0.1451,0.1417,0.1416,0.1342,0.1336,0.1277,0.1254,0.1205,0.1203,0.1114,0.1062,0.1059,0.1049,0.0949,0.0843,0.0824,0.0795,0.0701,0.0785,0.0989,0.1026,0.1061,0.1013,0.0708,0.0708,0.0464,0.0461,0.046]},{"header":{"parameterUnit":"m.s-1","parameterCategory":2,"la1":30.2991,"la2":30.254,"lo1":-89.0895,"lo2":-89.0444,"dy":0.0017,"dx":0.0017,"nx":28,"ny":28,"refTime":"2024-04-04T03:00:00:Z","depth":"0","parameterNumber":3,"parameterNumberName":"V-component_of_CURRENTS"},"data":[0,0,0,0,0,0,0,0,0,0,0,0,0,0,0,0,0,0,0,0,0,0,0,0,0,0,0,0,0,0,0,0,0,0,0,0,0,0,0,0,0,0,0,0,0,0,0,0,0,0,0,0,0,0,0,0,0,0,-0.0816,-0.0818,0,-0.1002,-0.1005,-0.1007,-0.1163,-0.1164,-0.1166,-0.1167,-0.1468,-0.1474,-0.1481,0,0,0,0,0,0,0,0,0,0,0,0,0,-0.0654,-0.0656,-0.0816,-0.0818,-0.082,-0.1002,-0.1005,-0.1008,-0.1163,-0.1165,-0.1166,-0.1168,-0.1466,-0.1473,-0.1481,0,0,0,0,0,0,0,0,0,0,0,0,0,-0.0773,-0.0657,-0.0816,-0.0918,-0.0929,-0.1001,-0.1005,-0.1008,-0.1162,-0.1165,-0.1167,-0.1169,-0.1463,-0.1473,-0.1482,-0.15,0,0,-0.1513,-0.1517,0,0,0,0,0,0,0,0,-0.0766,-0.0779,-0.0901,-0.0911,-0.0923,-0.1059,-0.1058,-0.1178,-0.1162,-0.1076,-0.1167,-0.117,-0.1338,-0.1359,-0.1391,-0.1515,-0.1527,-0.1514,-0.152,-0.1524,-0.1527,0,0,0,0,0,0,0,-0.0758,-0.0772,-0.0893,-0.0903,-0.0916,-0.0974,-0.0993,-0.1081,-0.1197,-0.1084,-0.1095,-0.1111,-0.1346,-0.1381,-0.14,-0.1532,-0.1514,-0.1522,-0.1529,-0.1532,-0.1785,-0.1786,0,0,0,0,0,0,-0.0724,-0.0764,-0.0887,-0.0898,-0.0845,-0.0975,-0.0996,-0.1016,-0.1194,-0.1222,-0.1109,-0.1117,-0.1363,-0.1388,-0.1411,-0.1453,-0.1524,-0.1533,-0.1539,-0.1785,-0.1785,-0.1786,0,0,0,0,0,0,-0.072,-0.0733,-0.0879,-0.0833,-0.0855,-0.0975,-0.0995,-0.1018,-0.1052,-0.1211,-0.1242,-0.1119,-0.1365,-0.1397,-0.15,-0.1466,-0.1538,-0.1547,-0.1784,-0.1785,-0.1786,-0.1531,0,0,0,0,0,0,-0.0714,-0.0731,-0.072,-0.0831,-0.0857,-0.0891,-0.0994,-0.102,-0.1057,-0.107,-0.1229,-0.126,-0.137,-0.1484,-0.151,-0.1481,-0.1555,-0.1783,-0.1784,-0.1786,-0.1539,-0.1523,-0.151,0,0,0,0,0,-0.0708,-0.067,-0.0718,-0.0732,-0.0842,-0.0889,-0.0906,-0.1002,-0.1054,-0.1045,-0.1181,-0.1255,-0.1512,-0.1492,-0.1522,-0.1495,-0.1782,-0.1784,-0.1785,-0.1545,-0.1526,-0.1511,0,0,0,0,0,0,-0.0582,-0.0686,-0.074,-0.0735,-0.0797,-0.0914,-0.0901,-0.0979,-0.1075,-0.1093,-0.1257,-0.1296,-0.1376,-0.1481,-0.1455,-0.1582,-0.1662,-0.167,-0.1469,-0.1453,-0.1439,-0.1319,-0.1563,0,0,0,0,0,-0.055,-0.0555,-0.0663,-0.0652,-0.0671,-0.0784,-0.0812,-0.0882,-0.0985,-0.1028,-0.1146,-0.1286,-0.1404,-0.1462,-0.1577,-0.1632,-0.1648,-0.1645,-0.163,-0.1617,-0.1546,-0.1566,-0.1543,-0.1792,-0.1792,-0.1792,0,0,-0.0497,-0.0551,-0.0555,-0.0625,-0.0677,-0.0693,-0.0805,-0.0826,-0.0849,-0.1046,-0.1098,-0.1232,-0.1412,-0.1483,-0.1528,-0.1565,-0.1553,-0.1619,-0.1605,-0.1541,-0.1564,-0.1539,-0.1516,-0.1793,-0.1793,-0.1792,0,0,-0.0389,-0.0436,-0.0411,-0.0452,-0.052,-0.0593,-0.0591,-0.07,-0.0749,-0.0822,-0.0981,-0.1072,-0.1256,-0.1355,-0.1439,-0.1412,-0.1478,-0.1485,-0.1306,-0.1326,-0.1303,-0.1282,-0.1233,-0.121,-0.1476,-0.1475,-0.1475,0,-0.0322,-0.0331,-0.0403,-0.0392,-0.042,-0.0538,-0.0528,-0.0579,-0.0714,-0.0741,-0.0806,-0.1037,-0.1176,-0.126,-0.1259,-0.1365,-0.1375,-0.1344,-0.1295,-0.1276,-0.1259,-0.1214,-0.1192,-0.1463,-0.1464,-0.1466,-0.1467,0,-0.0219,-0.0228,-0.02,-0.0246,-0.0268,-0.0271,-0.0362,-0.0387,-0.0468,-0.054,-0.0617,-0.0789,-0.0922,-0.0994,-0.1115,-0.1096,-0.1136,-0.1265,-0.1305,-0.1216,-0.1178,-0.1159,-0.1446,-0.145,-0.1454,-0.1457,0,0,-0.0084,-0.013,-0.0123,-0.0144,-0.0206,-0.0224,-0.0217,-0.0268,-0.0275,-0.0358,-0.0366,-0.0526,-0.0599,-0.0696,-0.0857,-0.0862,-0.0753,-0.0987,-0.0994,-0.0874,-0.0733,-0.0731,-0.0711,-0.0878,-0.0875,-0.0872,-0.0735,0,0.0001,0.0028,-0.0013,0.0008,-0.0,-0.008,-0.0076,-0.0122,-0.0184,-0.0209,-0.031,-0.0396,-0.0498,-0.0575,-0.0572,-0.0753,-0.07,-0.0773,-0.0891,-0.0891,-0.0849,-0.0689,-0.0675,-0.055,-0.0718,-0.0715,-0.0712,0,0.0096,0.0086,0.0116,0.0075,0.0073,0.0078,0.0048,0.0035,-0.0001,-0.0044,-0.0068,-0.0177,-0.0198,-0.0322,-0.0379,-0.0428,-0.0508,-0.0604,-0.0605,-0.0664,-0.0854,-0.0684,-0.0512,-0.0554,-0.0685,-0.0687,-0.0689,0,0.017,0.0172,0.0184,0.0173,0.0129,0.0141,0.0122,0.0091,0.0081,0.0065,0.0058,0.0023,-0.0035,-0.0095,-0.0257,-0.0323,-0.0309,-0.0459,-0.0488,-0.0489,-0.0524,-0.0534,-0.0347,-0.0418,-0.0418,-0.0418,-0.0419,0,0.0239,0.0251,0.0218,0.0218,0.0243,0.0203,0.0229,0.0208,0.0197,0.0211,0.015,0.0149,0.0014,-0.0026,-0.0145,-0.0216,-0.021,-0.036,-0.0433,-0.0438,-0.0441,-0.0528,-0.0587,-0.0413,-0.0414,-0.0415,-0.0416,0,0.0302,0.028,0.029,0.0269,0.0269,0.0288,0.0281,0.0298,0.0284,0.0306,0.0308,0.0262,0.0221,0.0116,-0.0008,-0.0093,-0.0191,-0.0214,-0.0163,-0.0229,-0.03,-0.0348,-0.0207,-0.0235,-0.0175,-0.0174,-0.0173,0,0.0324,0.0338,0.0335,0.0343,0.0334,0.0349,0.036,0.0344,0.0359,0.0367,0.0388,0.0367,0.0351,0.0244,0.0094,-0.0002,-0.0122,-0.0067,-0.0186,-0.0194,-0.0304,-0.0337,-0.0376,-0.0119,-0.0118,-0.0117,-0.0116,0,0.0362,0.037,0.0375,0.0398,0.0414,0.043,0.0446,0.0472,0.0465,0.049,0.0517,0.0512,0.0425,0.033,0.0198,0.0094,-0.0073,-0.0048,-0.009,-0.0209,-0.0199,-0.0302,-0.0281,-0.0106,-0.0107,-0.0108,-0.0108,-0.0109,0.0391,0.0412,0.0424,0.0451,0.0473,0.0505,0.0528,0.0552,0.0593,0.0623,0.0615,0.0619,0.0499,0.0318,0.0209,0.0037,-0.0006,-0.0054,-0.0092,-0.0107,-0.0168,-0.0065,0.0016,0.0016,0.0016,0.0016,0.0015,0,0.0405,0.0434,0.0467,0.0494,0.053,0.053,0.0577,0.0604,0.0661,0.069,0.0708,0.0658,0.0518,0.0349,0.0126,0.0009,-0.0065,-0.0062,-0.0108,-0.014,-0.0064,-0.0101,-0.0002,-0.0002,-0.0002,-0.0002,-0.0002,-0.0002,0.0408,0.0444,0.0468,0.053,0.0556,0.0597,0.0626,0.0677,0.0711,0.0746,0.0742,0.0722,0.0611,0.0277,0.0029,-0.0047,-0.0146,-0.0137,-0.02,-0.0173,-0.0176,-0.0179,-0.0223,-0.0152,-0.0152,-0.0264,-0.0265,-0.0266]}],[{"header":{"parameterUnit":"m.s-1","parameterCategory":2,"la1":30.2991,"la2":30.254,"lo1":-89.0895,"lo2":-89.0444,"dy":0.0017,"dx":0.0017,"nx":28,"ny":28,"refTime":"2024-04-04T03:00:00:Z","depth":"2","parameterNumber":2,"parameterNumberName":"U-component_of_CURRENTS"},"data":[0,0,0,0,0,0,0,0,0,0,0,0,0,0,0,0,0,0,0,0,0,0,0,0,0,0,0,0,0,0,0,0,0,0,0,0,0,0,0,0,0,0,0,0,0,0,0,0,0,0,0,0,0,0,0,0,0,0,0.1862,0.1864,0,0.2089,0.2091,0.2094,0.2197,0.2197,0.2196,0.2196,0.2335,0.2339,0.2343,0,0,0,0,0,0,0,0,0,0,0,0,0,0.1762,0.1762,0.1862,0.1865,0.1867,0.2088,0.2091,0.2095,0.2197,0.2197,0.2196,0.2196,0.2334,0.2338,0.2343,0,0,0,0,0,0,0,0,0,0,0,0,0,0.1879,0.1762,0.1861,0.1944,0.1954,0.2088,0.2092,0.2096,0.2197,0.2197,0.2196,0.2196,0.2332,0.2338,0.2344,0.2391,0,0,0.2362,0.2365,0,0,0,0,0,0,0,0,0.1872,0.1883,0.1929,0.1939,0.195,0.2113,0.2108,0.219,0.2197,0.2106,0.2196,0.2195,0.2252,0.2265,0.2311,0.2397,0.2403,0.2363,0.2366,0.2369,0.2371,0,0,0,0,0,0,0,0.1863,0.1875,0.1953,0.1932,0.1945,0.2054,0.2068,0.2125,0.2178,0.2114,0.2122,0.2145,0.2257,0.2305,0.2315,0.2405,0.2363,0.2368,0.2372,0.2374,0.2497,0.2497,0,0,0,0,0,0,0.1821,0.1866,0.1945,0.1959,0.1908,0.2055,0.2071,0.2062,0.218,0.2198,0.2146,0.2149,0.2295,0.2308,0.232,0.2329,0.2369,0.2375,0.2378,0.2498,0.2497,0.2497,0,0,0,0,0,0,0.1817,0.1825,0.1936,0.192,0.1941,0.2055,0.2046,0.2067,0.2141,0.2205,0.2221,0.2201,0.2295,0.2312,0.2375,0.2337,0.2377,0.2383,0.2498,0.2498,0.2497,0.238,0,0,0,0,0,0,0.1813,0.1821,0.1822,0.1915,0.194,0.1985,0.2047,0.2071,0.2154,0.2162,0.2257,0.2269,0.2296,0.2366,0.2381,0.2346,0.2387,0.2498,0.2498,0.2497,0.2385,0.2376,0.2368,0,0,0,0,0,0.1808,0.1814,0.1819,0.1831,0.1928,0.1984,0.2006,0.209,0.2157,0.2163,0.2246,0.2267,0.2371,0.2372,0.2389,0.2354,0.2499,0.2498,0.2497,0.2388,0.2378,0.2369,0,0,0,0,0,0,0.1762,0.1827,0.1835,0.1855,0.1894,0.2,0.2042,0.2109,0.219,0.2204,0.2286,0.2301,0.2333,0.2377,0.2375,0.2389,0.243,0.2433,0.2341,0.2332,0.2324,0.2308,0.2392,0,0,0,0,0,0.1748,0.1768,0.1825,0.1832,0.1858,0.1957,0.2007,0.2045,0.2125,0.2165,0.222,0.2287,0.2344,0.2366,0.2407,0.2436,0.2458,0.242,0.2412,0.2404,0.2404,0.2425,0.2417,0.2495,0.2495,0.2495,0,0,0.1728,0.177,0.1778,0.1825,0.1879,0.1906,0.1986,0.2037,0.2049,0.2164,0.2201,0.2266,0.235,0.2362,0.2378,0.2393,0.2387,0.2403,0.2396,0.2401,0.2423,0.2415,0.2408,0.2494,0.2494,0.2494,0,0,0.1708,0.1733,0.1748,0.1779,0.1839,0.1885,0.19,0.198,0.2004,0.2052,0.213,0.2176,0.2265,0.229,0.2332,0.2315,0.2349,0.2328,0.2268,0.2286,0.228,0.2274,0.2252,0.2246,0.2316,0.2316,0.2316,0,0.1689,0.1702,0.1757,0.1779,0.1812,0.1873,0.1889,0.1916,0.1993,0.202,0.2034,0.218,0.2224,0.2278,0.2255,0.229,0.2309,0.2293,0.2273,0.2268,0.2265,0.2244,0.2239,0.231,0.2311,0.2311,0.2312,0,0.1679,0.1692,0.1706,0.1742,0.1774,0.1791,0.1823,0.1833,0.1883,0.1928,0.1978,0.2038,0.2131,0.2131,0.2194,0.2194,0.2215,0.2262,0.2289,0.2249,0.223,0.2226,0.2302,0.2304,0.2306,0.2307,0,0,0.1632,0.169,0.1694,0.1702,0.1757,0.1776,0.1777,0.1812,0.1839,0.1863,0.1911,0.1965,0.2018,0.2067,0.2124,0.2123,0.2083,0.2175,0.2179,0.2136,0.2102,0.2007,0.1995,0.2138,0.2138,0.2138,0.2083,0,0.161,0.1634,0.1675,0.1679,0.1693,0.1737,0.1745,0.1775,0.1806,0.1843,0.1893,0.1954,0.1987,0.203,0.2033,0.2101,0.2077,0.2092,0.2163,0.2164,0.2071,0.1989,0.1849,0.1781,0.208,0.2079,0.2079,0,0.1591,0.1611,0.1622,0.1657,0.1671,0.1682,0.1721,0.1728,0.1784,0.1815,0.1871,0.1931,0.1957,0.1982,0.2019,0.2037,0.2052,0.2073,0.2073,0.2028,0.2063,0.188,0.1764,0.2073,0.2074,0.2074,0.2074,0,0.154,0.1574,0.1583,0.1594,0.1641,0.1654,0.1682,0.1734,0.1754,0.1799,0.1833,0.1888,0.1921,0.1952,0.1989,0.2015,0.2015,0.2061,0.1972,0.1966,0.1881,0.1866,0.2054,0.2054,0.2054,0.2054,0.2054,0,0.1508,0.1507,0.156,0.1559,0.1577,0.1622,0.1644,0.1677,0.1737,0.1763,0.182,0.1839,0.192,0.1941,0.197,0.1941,0.1996,0.1932,0.194,0.1831,0.1814,0.2117,0.2126,0.2052,0.2052,0.2053,0.2053,0,0.1446,0.1481,0.1488,0.1536,0.1553,0.1566,0.163,0.1639,0.1699,0.1727,0.1743,0.1813,0.1811,0.1858,0.1897,0.1897,0.1894,0.1871,0.1711,0.1698,0.1832,0.1836,0.1751,0.1747,0.1744,0.1741,0.1739,0,0.1418,0.1416,0.1463,0.1472,0.1495,0.1523,0.1542,0.1615,0.1625,0.1695,0.1699,0.1723,0.1708,0.1709,0.1701,0.168,0.1782,0.1548,0.1556,0.1782,0.1799,0.1807,0.1815,0.1388,0.1383,0.1379,0.1375,0,0.1359,0.1382,0.1389,0.1407,0.1427,0.1445,0.1475,0.1488,0.1552,0.1569,0.1573,0.1571,0.1553,0.1461,0.144,0.1429,0.1539,0.1461,0.1745,0.1485,0.1435,0.1454,0.1474,0.1339,0.1342,0.1345,0.1347,0.1349,0.1321,0.1312,0.1326,0.1333,0.1348,0.1347,0.1332,0.1352,0.1357,0.1356,0.1415,0.1352,0.1357,0.1227,0.1183,0.1157,0.1276,0.1248,0.1263,0.1282,0.1249,0.1196,0.1046,0.1048,0.105,0.1051,0.1052,0,0.1269,0.1254,0.1249,0.1245,0.1216,0.1263,0.1263,0.1226,0.1178,0.1192,0.1172,0.1047,0.0962,0.0969,0.0862,0.0859,0.0886,0.0833,0.0869,0.0904,0.0936,0.0888,0.0588,0.0586,0.0585,0.0584,0,0,0.1243,0.1202,0.1186,0.1112,0.1104,0.1056,0.1041,0.0999,0.0986,0.0917,0.0871,0.0918,0.0932,0.0752,0.0723,0.0635,0.0773,0.0607,0.0978,0.1055,0.1085,0.1167,0.113,0,0,0,0,0]},{"header":{"parameterUnit":"m.s-1","parameterCategory":2,"la1":30.2991,"la2":30.254,"lo1":-89.0895,"lo2":-89.0444,"dy":0.0017,"dx":0.0017,"nx":28,"ny":28,"refTime":"2024-04-04T03:00:00:Z","depth":"2","parameterNumber":3,"parameterNumberName":"V-component_of_CURRENTS"},"data":[0,0,0,0,0,0,0,0,0,0,0,0,0,0,0,0,0,0,0,0,0,0,0,0,0,0,0,0,0,0,0,0,0,0,0,0,0,0,0,0,0,0,0,0,0,0,0,0,0,0,0,0,0,0,0,0,0,0,0.0448,0.0446,0,0.0362,0.0362,0.0362,0.0405,0.0406,0.0408,0.0409,0.0335,0.0331,0.0328,0,0,0,0,0,0,0,0,0,0,0,0,0,0.0488,0.0489,0.0448,0.0446,0.0444,0.0362,0.0362,0.0362,0.0404,0.0406,0.0408,0.041,0.0336,0.0332,0.0328,0,0,0,0,0,0,0,0,0,0,0,0,0,0.0452,0.0489,0.0448,0.0449,0.0448,0.0362,0.0362,0.0361,0.0404,0.0406,0.0408,0.041,0.0337,0.0332,0.0327,0.0254,0,0,0.0312,0.031,0,0,0,0,0,0,0,0,0.0454,0.0452,0.0451,0.0449,0.0447,0.0388,0.0348,0.0323,0.0404,0.043,0.0409,0.0411,0.0346,0.0341,0.0332,0.025,0.0247,0.0312,0.0309,0.0307,0.0305,0,0,0,0,0,0,0,0.0457,0.0454,0.0423,0.0449,0.0446,0.0398,0.0398,0.0343,0.0384,0.0428,0.0429,0.0404,0.0347,0.0337,0.0331,0.0246,0.0312,0.0307,0.0304,0.0302,0.0119,0.0117,0,0,0,0,0,0,0.0456,0.0458,0.0426,0.042,0.0446,0.0395,0.0395,0.0412,0.0385,0.038,0.0402,0.0406,0.0345,0.0337,0.0328,0.0284,0.0307,0.0302,0.0299,0.0121,0.0118,0.0116,0,0,0,0,0,0,0.0458,0.0455,0.0429,0.0427,0.0419,0.0393,0.0411,0.0409,0.0386,0.0363,0.0361,0.0379,0.0346,0.0335,0.029,0.028,0.03,0.0295,0.0123,0.012,0.0117,0.0166,0,0,0,0,0,0,0.046,0.0458,0.0448,0.0428,0.0419,0.0405,0.0408,0.0406,0.0364,0.0369,0.0341,0.0338,0.0347,0.0298,0.0285,0.0273,0.0291,0.0125,0.0122,0.0118,0.0167,0.0165,0.0164,0,0,0,0,0,0.0462,0.0447,0.045,0.0443,0.0416,0.0404,0.0397,0.0389,0.0361,0.0371,0.034,0.0339,0.0266,0.0292,0.0278,0.0265,0.0127,0.0123,0.0118,0.0168,0.0166,0.0164,0,0,0,0,0,0,0.0467,0.0447,0.0451,0.0434,0.043,0.0409,0.0384,0.0364,0.0342,0.0337,0.0313,0.0308,0.0261,0.0238,0.0267,0.0196,0.0194,0.0187,0.0236,0.0234,0.0233,0.0265,0.0287,0,0,0,0,0,0.0458,0.0447,0.0435,0.0426,0.0415,0.0389,0.0365,0.0372,0.0347,0.0339,0.0322,0.028,0.0228,0.0216,0.0178,0.0134,0.013,0.0111,0.011,0.0109,0.0122,0.0106,0.0106,0.0102,0.0102,0.0102,0,0,0.0458,0.044,0.0436,0.0424,0.041,0.0403,0.0385,0.0366,0.0368,0.0328,0.0317,0.0266,0.0208,0.0179,0.0155,0.0166,0.0105,0.0104,0.0104,0.0118,0.0102,0.0103,0.0104,0.0099,0.01,0.01,0,0,0.0451,0.044,0.0428,0.042,0.0394,0.0392,0.0379,0.0365,0.0372,0.0341,0.0305,0.0258,0.019,0.0173,0.0139,0.0092,0.0086,0.0059,0.0096,0.008,0.0082,0.0084,0.0083,0.0084,0.0074,0.0074,0.0074,0,0.0447,0.0442,0.0423,0.0408,0.0395,0.0384,0.0382,0.0379,0.0361,0.0353,0.0352,0.0235,0.0194,0.0137,0.0132,0.0095,0.0086,0.0118,0.0085,0.0086,0.0086,0.0085,0.0086,0.0076,0.0076,0.0076,0.0075,0,0.0438,0.0428,0.0416,0.0408,0.0399,0.0396,0.0396,0.0398,0.0381,0.0372,0.0323,0.0276,0.0217,0.0181,0.0142,0.0108,0.01,0.0079,0.0106,0.0091,0.0089,0.0089,0.0079,0.0078,0.0077,0.0077,0,0,0.0459,0.042,0.0418,0.0418,0.04,0.0405,0.0404,0.0406,0.0402,0.0385,0.0372,0.0284,0.0259,0.0218,0.0166,0.0154,0.0147,0.0124,0.0123,0.0154,0.0122,0.0115,0.0114,0.0123,0.0123,0.0123,0.0122,0,0.0466,0.0443,0.0424,0.0427,0.0422,0.0416,0.0422,0.0421,0.0416,0.0413,0.0361,0.0325,0.0273,0.0246,0.0222,0.0157,0.0147,0.015,0.0105,0.0104,0.0125,0.0114,0.0125,0.0124,0.0122,0.0122,0.0122,0,0.0467,0.0454,0.0447,0.0445,0.0444,0.045,0.0461,0.0469,0.0455,0.0446,0.0409,0.0372,0.033,0.0297,0.0225,0.0228,0.0179,0.0142,0.0141,0.0122,0.0097,0.0133,0.0124,0.0122,0.0122,0.0122,0.0122,0,0.0492,0.0475,0.0475,0.0471,0.0465,0.0471,0.0479,0.0473,0.0487,0.0475,0.0473,0.042,0.0399,0.0337,0.0255,0.0241,0.0189,0.0161,0.0114,0.0114,0.0109,0.0108,0.012,0.012,0.012,0.012,0.012,0,0.0499,0.0503,0.0489,0.0489,0.0513,0.0499,0.0526,0.0525,0.0525,0.0539,0.0496,0.0494,0.0407,0.0363,0.0284,0.0207,0.0214,0.0127,0.0112,0.0123,0.0123,0.0104,0.0103,0.012,0.012,0.012,0.012,0,0.0518,0.0502,0.0512,0.0514,0.052,0.054,0.0562,0.0579,0.0575,0.0595,0.0595,0.0554,0.05,0.0414,0.032,0.0251,0.0175,0.0142,0.0168,0.0156,0.0107,0.0107,0.0102,0.0102,0.0102,0.0101,0.0101,0,0.0514,0.052,0.0539,0.0553,0.0555,0.0581,0.0601,0.0606,0.0626,0.0631,0.0643,0.0601,0.0569,0.0441,0.0324,0.0212,0.0178,0.0143,0.0112,0.0118,0.0105,0.0105,0.0105,0.0125,0.0125,0.0125,0.0125,0,0.0523,0.0537,0.0552,0.0584,0.0607,0.0637,0.0665,0.0686,0.0699,0.071,0.0714,0.0691,0.0579,0.0469,0.0321,0.0238,0.0164,0.014,0.0142,0.0125,0.0139,0.0126,0.0125,0.0126,0.0125,0.0125,0.0125,0.0125,0.0536,0.0557,0.0582,0.0617,0.0649,0.0683,0.0708,0.0735,0.0766,0.0775,0.0761,0.0718,0.0616,0.0416,0.0296,0.0166,0.0166,0.011,0.0111,0.0111,0.0111,0.0123,0.0108,0.0108,0.0108,0.0108,0.0107,0,0.0539,0.0569,0.0606,0.0645,0.0684,0.0694,0.0743,0.0764,0.0796,0.0798,0.0789,0.0674,0.0556,0.0426,0.0243,0.0136,0.0121,0.009,0.01,0.0101,0.0102,0.0101,0.0095,0.0095,0.0094,0.0094,0,0,0.0536,0.0573,0.06,0.0661,0.0691,0.0731,0.0756,0.0789,0.0803,0.0795,0.0762,0.0722,0.0584,0.0448,0.031,0.0203,0.017,0.0173,0.0196,0.0225,0.0227,0.0127,0.0129,0,0,0,0,0]}],[{"header":{"parameterUnit":"m.s-1","parameterCategory":2,"la1":30.2991,"la2":30.254,"lo1":-89.0895,"lo2":-89.0444,"dy":0.0017,"dx":0.0017,"nx":28,"ny":28,"refTime":"2024-04-04T03:00:00:Z","depth":"4","parameterNumber":2,"parameterNumberName":"U-component_of_CURRENTS"},"data":[0,0,0,0,0,0,0,0,0,0,0,0,0,0,0,0,0,0,0,0,0,0,0,0,0,0,0,0,0,0,0,0,0,0,0,0,0,0,0,0,0,0,0,0,0,0,0,0,0,0,0,0,0,0,0,0,0,0,0.0549,0.0548,0,0.044,0.0439,0.0437,0.0324,0.0322,0.0321,0.032,0.0273,0.0273,0.0273,0,0,0,0,0,0,0,0,0,0,0,0,0,0.0592,0.0591,0.0549,0.0548,0.0547,0.0441,0.0439,0.0437,0.0324,0.0322,0.0321,0.0319,0.0273,0.0273,0.0273,0,0,0,0,0,0,0,0,0,0,0,0,0,0.0534,0.0591,0.0549,0.048,0.0473,0.0441,0.0439,0.0436,0.0324,0.0322,0.032,0.0319,0.0273,0.0273,0.0273,0.0309,0,0,0.0272,0.0272,0,0,0,0,0,0,0,0,0.0537,0.0532,0.0491,0.0485,0.0477,0.0397,0.0436,0.0398,0.0325,0.0377,0.032,0.0318,0.0324,0.0319,0.0297,0.0307,0.0305,0.0272,0.0272,0.0272,0.0272,0,0,0,0,0,0,0,0.0542,0.0536,0.0502,0.0491,0.0482,0.0432,0.0422,0.0428,0.0361,0.0372,0.0365,0.0359,0.0319,0.0297,0.0295,0.0304,0.0272,0.0272,0.0272,0.0272,0.0372,0.0375,0,0,0,0,0,0,0.0568,0.054,0.0506,0.0499,0.0507,0.0434,0.0422,0.0422,0.0359,0.0348,0.0361,0.0354,0.0298,0.0296,0.0293,0.0368,0.0272,0.0272,0.0272,0.037,0.0373,0.0376,0,0,0,0,0,0,0.057,0.0566,0.051,0.0519,0.0509,0.0436,0.0435,0.042,0.0415,0.035,0.0339,0.0373,0.0297,0.0294,0.031,0.0364,0.0272,0.0272,0.0367,0.0371,0.0375,0.0496,0,0,0,0,0,0,0.0571,0.0568,0.0589,0.0522,0.051,0.0517,0.0437,0.042,0.0415,0.0406,0.0358,0.0349,0.0295,0.0311,0.031,0.0362,0.0272,0.0363,0.0368,0.0373,0.0488,0.0503,0.0516,0,0,0,0,0,0.0573,0.0593,0.059,0.0587,0.0537,0.052,0.051,0.0447,0.0419,0.0433,0.0391,0.0352,0.0343,0.0313,0.0311,0.0365,0.036,0.0367,0.0373,0.0482,0.05,0.0516,0,0,0,0,0,0,0.0602,0.0582,0.0577,0.0586,0.0576,0.0502,0.0505,0.0477,0.0454,0.0448,0.0383,0.0374,0.041,0.038,0.0348,0.0411,0.0349,0.0355,0.0432,0.0449,0.0463,0.0454,0.0271,0,0,0,0,0,0.0631,0.0649,0.0622,0.0633,0.0636,0.0587,0.0577,0.0545,0.051,0.0496,0.0467,0.0442,0.0435,0.0435,0.0423,0.0464,0.0431,0.05,0.0515,0.0527,0.052,0.0529,0.0542,0.0396,0.0396,0.0396,0,0,0.0643,0.0636,0.0645,0.0644,0.0625,0.0624,0.0575,0.0575,0.0571,0.0502,0.0505,0.0498,0.0458,0.0486,0.0502,0.0468,0.0555,0.0534,0.0545,0.0531,0.0536,0.055,0.0562,0.0401,0.04,0.0399,0,0,0.0664,0.068,0.0701,0.0702,0.0701,0.0674,0.0691,0.066,0.0649,0.0664,0.0612,0.0638,0.0625,0.0605,0.059,0.0687,0.0632,0.07,0.076,0.077,0.0781,0.0791,0.0778,0.0785,0.0704,0.0704,0.0704,0,0.0683,0.0696,0.0705,0.0719,0.0715,0.0706,0.0713,0.0709,0.0688,0.0692,0.0683,0.0683,0.0674,0.0686,0.0722,0.0719,0.0703,0.0695,0.0787,0.0795,0.0803,0.0787,0.0794,0.0711,0.071,0.0709,0.0709,0,0.0708,0.0725,0.0737,0.0753,0.076,0.077,0.0768,0.0793,0.0794,0.0779,0.0819,0.0811,0.0801,0.083,0.0804,0.0865,0.083,0.0805,0.0739,0.0825,0.0803,0.0808,0.072,0.0718,0.0716,0.0714,0,0,0.0723,0.075,0.0756,0.0763,0.0778,0.0779,0.0809,0.082,0.0833,0.0861,0.0878,0.0912,0.0919,0.0906,0.0903,0.0932,0.0998,0.0906,0.0903,0.0883,0.1007,0.0935,0.0932,0.0991,0.0992,0.0993,0.0973,0,0.0736,0.0763,0.0773,0.0791,0.0798,0.0812,0.0829,0.0849,0.0869,0.0897,0.0922,0.0944,0.0941,0.0964,0.0993,0.0993,0.1014,0.1005,0.0933,0.093,0.0849,0.0937,0.0998,0.0976,0.0977,0.0977,0.0978,0,0.0752,0.0763,0.0787,0.08,0.0807,0.0824,0.0855,0.0874,0.0916,0.0937,0.0972,0.098,0.1033,0.1027,0.1052,0.1046,0.104,0.104,0.1038,0.0925,0.0867,0.087,0.0985,0.0984,0.0984,0.0983,0.0983,0,0.0741,0.0769,0.0786,0.0792,0.0813,0.0837,0.0856,0.0893,0.0911,0.0976,0.0999,0.1034,0.1065,0.1072,0.1078,0.1073,0.1095,0.1073,0.0993,0.0986,0.0997,0.0987,0.109,0.109,0.109,0.109,0.109,0,0.0733,0.0749,0.079,0.0794,0.0816,0.0842,0.0876,0.0905,0.0951,0.0971,0.1023,0.1039,0.1085,0.1095,0.109,0.1051,0.1094,0.1012,0.0985,0.1051,0.1047,0.1,0.099,0.109,0.109,0.109,0.109,0,0.0714,0.0742,0.0757,0.0792,0.081,0.0831,0.0878,0.0901,0.0954,0.0988,0.1014,0.1059,0.1074,0.1088,0.1103,0.1054,0.1034,0.1006,0.1073,0.1047,0.0912,0.0909,0.0911,0.0909,0.0907,0.0905,0.0904,0,0.0716,0.0722,0.0752,0.0762,0.0783,0.0823,0.0846,0.0901,0.0919,0.0978,0.0985,0.103,0.105,0.1004,0.1027,0.0998,0.0984,0.0956,0.0949,0.0925,0.0898,0.0898,0.0898,0.09,0.09,0.0899,0.0899,0,0.0708,0.0719,0.0722,0.0732,0.0762,0.0778,0.0819,0.0827,0.0885,0.0939,0.094,0.0943,0.0954,0.0956,0.0947,0.0922,0.097,0.0933,0.0937,0.093,0.0911,0.0887,0.0889,0.0891,0.0892,0.0893,0.0893,0,0.071,0.0698,0.0699,0.0697,0.0723,0.0722,0.075,0.077,0.0795,0.0864,0.0858,0.09,0.0948,0.0914,0.0899,0.0881,0.086,0.082,0.083,0.0838,0.0823,0.0789,0.0718,0,0,0,0,0,0.0706,0.0674,0.0667,0.0653,0.0666,0.068,0.0719,0.075,0.0812,0.0793,0.0823,0.0829,0.0818,0.0833,0.0797,0.0853,0.086,0.0805,0.0818,0.0851,0.0859,0.0848,0,0,0,0,0,0,0.0699,0.0688,0.0649,0.0613,0.0598,0.0613,0.0637,0.0679,0.0669,0.0734,0.0735,0.0774,0.078,0.0837,0.0783,0.0785,0.0772,0.0828,0.0826,0.0846,0.0854,0.086,0.0852,0,0,0,0,0]},{"header":{"parameterUnit":"m.s-1","parameterCategory":2,"la1":30.2991,"la2":30.254,"lo1":-89.0895,"lo2":-89.0444,"dy":0.0017,"dx":0.0017,"nx":28,"ny":28,"refTime":"2024-04-04T03:00:00:Z","depth":"4","parameterNumber":3,"parameterNumberName":"V-component_of_CURRENTS"},"data":[0,0,0,0,0,0,0,0,0,0,0,0,0,0,0,0,0,0,0,0,0,0,0,0,0,0,0,0,0,0,0,0,0,0,0,0,0,0,0,0,0,0,0,0,0,0,0,0,0,0,0,0,0,0,0,0,0,0,0.0533,0.0534,0,0.0562,0.0562,0.0562,0.0558,0.0558,0.0557,0.0557,0.0601,0.0603,0.0605,0,0,0,0,0,0,0,0,0,0,0,0,0,0.0503,0.0504,0.0533,0.0534,0.0534,0.0562,0.0562,0.0562,0.0558,0.0558,0.0557,0.0556,0.0601,0.0603,0.0605,0,0,0,0,0,0,0,0,0,0,0,0,0,0.0522,0.0504,0.0533,0.0535,0.0536,0.0561,0.0562,0.0562,0.0558,0.0558,0.0557,0.0556,0.06,0.0603,0.0605,0.0634,0,0,0.0612,0.0613,0,0,0,0,0,0,0,0,0.0521,0.0523,0.0535,0.0535,0.0536,0.0556,0.0568,0.0587,0.0558,0.055,0.0557,0.0556,0.0588,0.0592,0.0598,0.0636,0.0638,0.0613,0.0614,0.0615,0.0616,0,0,0,0,0,0,0,0.052,0.0522,0.0544,0.0535,0.0536,0.0544,0.0546,0.0571,0.0573,0.055,0.055,0.0554,0.0589,0.0596,0.0599,0.0638,0.0613,0.0615,0.0616,0.0617,0.0696,0.0697,0,0,0,0,0,0,0.0516,0.0521,0.0543,0.0545,0.0527,0.0545,0.0547,0.055,0.0572,0.0575,0.0554,0.0553,0.0592,0.0596,0.0601,0.062,0.0615,0.0617,0.0619,0.0696,0.0696,0.0697,0,0,0,0,0,0,0.0515,0.0518,0.0542,0.0534,0.0538,0.0547,0.055,0.0551,0.056,0.0575,0.0578,0.0562,0.0591,0.0597,0.062,0.0623,0.0618,0.0621,0.0695,0.0696,0.0697,0.067,0,0,0,0,0,0,0.0514,0.0517,0.0518,0.0534,0.0538,0.0545,0.055,0.0552,0.0563,0.0562,0.0583,0.0586,0.0591,0.0617,0.0623,0.0626,0.0623,0.0694,0.0695,0.0697,0.067,0.067,0.067,0,0,0,0,0,0.0513,0.0511,0.0518,0.0521,0.0539,0.0545,0.0547,0.0552,0.0564,0.056,0.0581,0.0585,0.0629,0.0619,0.0626,0.063,0.0694,0.0695,0.0696,0.067,0.067,0.067,0,0,0,0,0,0,0.0499,0.0511,0.0519,0.0521,0.0529,0.0543,0.0543,0.0557,0.0572,0.0575,0.0595,0.06,0.0623,0.0635,0.0625,0.0658,0.0662,0.0665,0.064,0.064,0.064,0.0612,0.0625,0,0,0,0,0,0.0498,0.0499,0.0512,0.0515,0.0518,0.0536,0.0542,0.0547,0.0563,0.0569,0.0591,0.0615,0.0636,0.0643,0.0665,0.0684,0.0663,0.0693,0.0693,0.0692,0.0676,0.0649,0.0643,0.0702,0.0702,0.0702,0,0,0.0495,0.0502,0.0503,0.0512,0.0521,0.052,0.0537,0.0543,0.0548,0.0574,0.0594,0.062,0.0644,0.0661,0.0672,0.0669,0.0665,0.0694,0.0693,0.0677,0.0649,0.0643,0.0638,0.0703,0.0703,0.0703,0,0,0.0482,0.0494,0.0487,0.0491,0.05,0.0511,0.0515,0.0536,0.0546,0.0568,0.0592,0.0614,0.0651,0.0661,0.0672,0.0688,0.067,0.0705,0.0674,0.0648,0.0642,0.0636,0.0593,0.0584,0.0698,0.0698,0.0698,0,0.0477,0.0476,0.0486,0.0478,0.0487,0.0507,0.0506,0.0516,0.0545,0.0557,0.0567,0.0618,0.0645,0.0656,0.0662,0.0685,0.0659,0.0669,0.0644,0.0638,0.0633,0.059,0.058,0.0697,0.0697,0.0697,0.0697,0,0.0455,0.0459,0.0455,0.0456,0.0462,0.0466,0.0481,0.0495,0.052,0.0533,0.0558,0.0588,0.0614,0.0632,0.0651,0.0639,0.0629,0.0649,0.0635,0.0624,0.0581,0.0571,0.0695,0.0695,0.0696,0.0696,0,0,0.0441,0.0439,0.0441,0.0448,0.0456,0.0464,0.0467,0.0481,0.0493,0.0509,0.0519,0.0553,0.0571,0.0585,0.0614,0.059,0.0541,0.0599,0.0598,0.054,0.046,0.0456,0.0444,0.055,0.0549,0.0548,0.0441,0,0.0426,0.0415,0.042,0.0426,0.0429,0.0447,0.0455,0.0468,0.0485,0.0499,0.051,0.0537,0.0552,0.0575,0.0549,0.0558,0.0515,0.0566,0.0493,0.0491,0.0475,0.0433,0.0543,0.0433,0.0431,0.0429,0.0428,0,0.0409,0.041,0.0408,0.043,0.0433,0.044,0.0466,0.0476,0.0483,0.0495,0.0494,0.051,0.0497,0.0515,0.0459,0.049,0.0464,0.045,0.0447,0.0441,0.0468,0.0451,0.041,0.0411,0.0413,0.0414,0.0415,0,0.0408,0.041,0.0416,0.042,0.0436,0.0449,0.0466,0.0479,0.0498,0.0497,0.0504,0.0478,0.0488,0.0435,0.0415,0.0433,0.0337,0.0364,0.0319,0.0318,0.0365,0.0373,0.0294,0.0294,0.0295,0.0295,0.0295,0,0.0397,0.0408,0.0421,0.0425,0.0451,0.0461,0.0488,0.0498,0.0511,0.0525,0.0511,0.0507,0.0468,0.0422,0.0383,0.0313,0.0307,0.0289,0.0285,0.0358,0.0366,0.0357,0.0366,0.0291,0.0292,0.0293,0.0293,0,0.0397,0.0398,0.0416,0.0438,0.0452,0.0476,0.0517,0.0532,0.0539,0.0552,0.0554,0.0526,0.0464,0.0403,0.0326,0.0288,0.0219,0.0195,0.0252,0.0258,0.0218,0.0227,0.0117,0.0116,0.0115,0.0114,0.0113,0,0.0389,0.0397,0.0434,0.0452,0.0467,0.0503,0.0529,0.0551,0.0566,0.0563,0.0565,0.0515,0.0486,0.0348,0.0294,0.0178,0.0181,0.0126,0.0182,0.019,0.0197,0.0208,0.0218,0.0112,0.0111,0.0111,0.0111,0,0.0387,0.0407,0.0425,0.0464,0.0498,0.0531,0.0565,0.0576,0.0593,0.0598,0.0564,0.0504,0.043,0.0342,0.0252,0.018,0.0151,0.0116,0.0118,0.0171,0.0182,0.0193,0.0204,0.0107,0.0108,0.0108,0.0108,0,0.0396,0.0413,0.0441,0.0477,0.0518,0.0544,0.0562,0.0572,0.0587,0.058,0.0566,0.0493,0.0458,0.0342,0.026,0.0184,0.0177,0.0156,0.0156,0.0159,0.0218,0.0242,0.0158,0,0,0,0,0,0.0396,0.0414,0.0448,0.0483,0.0523,0.0546,0.0579,0.0591,0.0602,0.0579,0.0573,0.0504,0.0389,0.0341,0.0262,0.0248,0.0165,0.0153,0.014,0.0089,0.0092,0.0157,0,0,0,0,0,0,0.0392,0.0425,0.0443,0.0482,0.0506,0.0547,0.0568,0.0576,0.056,0.056,0.0499,0.0479,0.0368,0.0432,0.0258,0.0237,0.0217,0.0105,0.0103,0.0086,0.009,0.0093,0.016,0,0,0,0,0]}]]